Regional Weather Roundup
Issued by NWS Jackson, KY

Home | Current Version | Previous Version | Graphics & Text | Print | Product List | Glossary On
Versions: 1 2 3 4 5 6 7 8 9 10 11 12 13 14 15 16 17 18 19 20 21 22 23 24 25 26 27 28 29 30 31 32 33 34 35 36 37 38 39 40 41 42 43 44 45 46 47 48 49 50
000
ASUS43 KJKL 180110
RWRJKL

EAST KENTUCKY HOURLY WEATHER ROUNDUP
NATIONAL WEATHER SERVICE JACKSON KY
800 PM EST SAT FEB 17 2018

NOTE: "FAIR" INDICATES FEW OR NO CLOUDS BELOW 12,000 FEET WITH
NO SIGNIFICANT WEATHER AND/OR OBSTRUCTIONS TO VISIBILITY.

* THESE REPORTS ARE NOT UNDER NWS QUALITY CONTROL AND MAY NOT
  REPORT WEATHER SUCH AS PRECIPITATION AND FOG.

KYZ079-080-083-085-087-088-110-112-115-119-120-180200
...EASTERN KENTUCKY...

CITY           SKY/WX    TMP DP  RH WIND       PRES   REMARKS
JACKSON        FOG       39  39 100 VRB3      30.07R VSB 1/2
LONDON         CLOUDY    44  42  93 W10       30.11R
SOMERSET*      CLOUDY    43  43 100 W9        30.13R
WILLIAMSBURG*  CLOUDY    45  45 100 SW3       30.11R
MIDDLESBORO*   CLOUDY    48  46  94 CALM      30.10R
HARLAN APT*    CLOUDY    43  43 100 CALM      30.09R
PIKE CO APT*   CLOUDY    40  40 100 SW3       30.05R
BIG SANDY APT* CLOUDY    40  40 100 W3        30.07R
MOREHEAD APT*  CLOUDY    39  37  93 SW6       30.08R FOG     WCI  35
ASHLAND*       MIX PCPN  34  33  96 CALM      30.07S FOG
$$

KYZ035-036-041-042-044-050-067-078-099-180200
...CENTRAL KENTUCKY...

CITY           SKY/WX    TMP DP  RH WIND       PRES   REMARKS
MT STERLING*   CLOUDY    39  39 100 W8        30.09R FOG     WCI  34
FLEMING/MASON* FOG       32  32 100 W5        30.09R VSB 1/4 WCI  28
DANVILLE*      CLOUDY    41  39  93 W8        30.11R
LEXINGTON      CLOUDY    40  37  89 W9        30.09R FOG     WCI  34
FRANKFORT      CLOUDY    37  35  92 CALM      30.09R FOG
LOUISVILLE     CLOUDY    38  37  97 SW5       30.12R FOG     WCI  34
LEBANON*       CLOUDY    39  39 100 SW8       30.12R FOG     WCI  34
GLASGOW*       CLOUDY   N/A N/A N/A W6        30.15R FOG
BOWLING GREEN  CLOUDY    45  44  97 W5        30.16R FOG
$$

KYZ091>093-OHZ055-061-077-WVZ005-015-034-035-042-180200
...SOUTHERN OHIO/WEST VIRGINIA...

CITY           SKY/WX    TMP DP  RH WIND       PRES   REMARKS
COVINGTON      SNOW      34  34 100 SW5       30.06R VSB 1/2 WCI  30
COLUMBUS       LGT SNOW  33  33 100 SW3       30.04R FOG
DAYTON         LGT SNOW  33  33 100 S8        30.03S FOG     WCI  26
WILMINGTON     LGT SNOW  33  33 100 SW7       30.04R FOG     WCI  27
HUNTINGTON     FOG       39  36  89 W5        30.05R VSB 1/2
CHARLESTON     CLOUDY    40  38  93 W5        30.03R
BECKLEY        CLOUDY    36  35  96 S5        30.00R WCI  32
BLUEFIELD      LGT RAIN  40  38  93 SW7       30.01R
LOGAN CO APT*  CLOUDY    39  39 100 SW3       30.02R
$$

VAZ002-007-008-TNZ017-027-036-066-071-180200
...SOUTHWEST VIRGINIA/EAST TENNESSEE...

CITY           SKY/WX    TMP DP  RH WIND       PRES   REMARKS
WISE*          CLOUDY    45  45 100 W8        30.05R
JONESVILLE*    MOCLDY    45  45 100 CALM      30.11R
ABINGDON*      RAIN      46  46 100 W3        30.07R
BRISTOL        LGT RAIN  47  47 100 SW5       30.09R FOG
MORRISTOWN*    CLOUDY    46  46 100 SW5       30.10R FOG
SEVIERVILLE*   CLOUDY    46  45  93 CALM      30.12R FOG
KNOXVILLE      CLOUDY    47  47 100 S5        30.11R
OAK RIDGE      CLOUDY    47  47 100 S6        30.11R
CROSSVILLE     CLOUDY    45  43  93 W20G26    30.11R
NASHVILLE      CLOUDY    48  44  86 W8        30.17R
$$

...KEY TO REMARKS...
VSB - VISIBILITY IN MILES
WCI - WIND CHILL INDEX
HX  - HEAT INDEX

$$



USA.gov is the U.S. government's official web portal to all federal, state and local government web resources and services.